Tracking 18945 objects as of 20-Jan-2018
HD Live streaming from Space Station
objects crossing your sky now

COSMOS 909

Track COSMOS 909 now!
10-day predictions
COSMOS 909 is classified as:


NORAD ID: 10010
Int'l Code: 1977-036A
Perigee: 996.4 km
Apogee: 2,113.6 km
Inclination: 65.9 °
Period: 117.0 minutes
Semi major axis: 7925 km
RCS: 1.4527 m2 (large)
Launch date: May 19, 1977
Source: Commonwealth of Independent States (former USSR) (CIS)
Launch site: PLESETSK MISSILE AND SPACE COMPLEX (PKMTR)
aabbcc
Your satellite tracking list
Your tracking list is empty




NASA's NSSDC Master Catalog

Two Line Element Set (TLE):
1 10010U 77036A   18019.88080373 -.00000059 +00000-0 -17254-4 0  9990
2 10010 065.8655 341.8935 0704733 170.3522 191.1860 12.30334365807580
Source of the keplerian elements: AFSPC